Time,TemperatureF,DewpointF,PressureIn,WindDirection,WindDirectionDegrees,WindSpeedMPH,WindSpeedGustMPH,Humidity,HourlyPrecipIn,Conditions,Clouds,dailyrainin,SoftwareType,DateUTC
2013-01-27 00:00:00,36.9,22.3,29.94,ESE,117,1.0,5.0,55,0.00,,,0.00,WeatherCatV1.13B119,2013-01-27 06:00:00,
2013-01-27 00:05:00,37.0,22.4,29.94,SE,146,0.0,4.0,55,0.00,,,0.00,WeatherCatV1.13B119,2013-01-27 06:05:00,
2013-01-27 00:10:00,37.2,22.1,29.94,SE,142,2.0,11.0,54,0.00,,,0.00,WeatherCatV1.13B119,2013-01-27 06:10:00,
2013-01-27 00:15:00,37.2,22.1,29.93,South,169,3.0,9.0,54,0.00,,,0.00,WeatherCatV1.13B119,2013-01-27 06:15:00,
2013-01-27 00:20:00,37.3,22.2,29.93,SE,134,5.0,5.0,54,0.00,,,0.00,WeatherCatV1.13B119,2013-01-27 06:20:00,
2013-01-27 00:25:00,37.6,22.0,29.93,SE,134,9.0,9.0,53,0.00,,,0.00,WeatherCatV1.13B119,2013-01-27 06:25:00,
2013-01-27 00:30:00,37.6,22.0,29.92,SE,133,3.0,6.0,53,0.00,,,0.00,WeatherCatV1.13B119,2013-01-27 06:30:00,
2013-01-27 00:35:00,37.6,22.5,29.92,SE,132,6.0,6.0,54,0.00,,,0.00,WeatherCatV1.13B119,2013-01-27 06:35:00,
2013-01-27 00:40:00,37.6,22.0,29.92,SE,134,2.0,10.0,53,0.00,,,0.00,WeatherCatV1.13B119,2013-01-27 06:40:00,
2013-01-27 00:45:00,37.8,22.2,29.91,SE,125,3.0,6.0,53,0.00,,,0.00,WeatherCatV1.13B119,2013-01-27 06:45:00,
2013-01-27 00:50:00,37.8,22.2,29.91,SE,124,3.0,5.0,53,0.00,,,0.00,WeatherCatV1.13B119,2013-01-27 06:50:00,
2013-01-27 00:55:00,37.8,22.2,29.91,SE,140,3.0,5.0,53,0.00,,,0.00,WeatherCatV1.13B119,2013-01-27 06:55:00,
2013-01-27 01:00:00,37.6,22.5,29.90,SE,142,2.0,5.0,54,0.00,,,0.00,WeatherCatV1.13B119,2013-01-27 07:00:00,
2013-01-27 01:05:00,37.6,22.5,29.90,SE,144,0.0,6.0,54,0.00,,,0.00,WeatherCatV1.13B119,2013-01-27 07:05:00,
2013-01-27 01:13:00,37.5,22.4,29.90,SE,139,2.0,5.0,54,0.00,,,0.00,WeatherCatV1.13B119,2013-01-27 07:13:00,
2013-01-27 01:18:00,37.5,22.4,29.89,SE,139,3.0,4.0,54,0.00,,,0.00,WeatherCatV1.13B119,2013-01-27 07:18:00,
2013-01-27 01:23:00,37.5,22.4,29.89,SE,125,5.0,6.0,54,0.00,,,0.00,WeatherCatV1.13B119,2013-01-27 07:23:00,
2013-01-27 01:28:00,37.5,21.9,29.89,SE,126,2.0,4.0,53,0.00,,,0.00,WeatherCatV1.13B119,2013-01-27 07:28:00,
2013-01-27 01:33:00,37.5,21.9,29.89,SE,126,2.0,3.0,53,0.00,,,0.00,WeatherCatV1.13B119,2013-01-27 07:33:00,
2013-01-27 01:38:00,37.3,21.8,29.89,SE,130,2.0,4.0,53,0.00,,,0.00,WeatherCatV1.13B119,2013-01-27 07:38:00,
2013-01-27 01:43:00,37.3,21.8,29.89,SE,130,1.0,3.0,53,0.00,,,0.00,WeatherCatV1.13B119,2013-01-27 07:43:00,
2013-01-27 01:48:00,37.3,21.8,29.89,ESE,123,3.0,4.0,53,0.00,,,0.00,WeatherCatV1.13B119,2013-01-27 07:48:00,
2013-01-27 01:53:00,37.2,21.7,29.89,ESE,121,0.0,3.0,53,0.00,,,0.00,WeatherCatV1.13B119,2013-01-27 07:53:00,
2013-01-27 01:58:00,37.2,22.1,29.89,ESE,121,3.0,3.0,54,0.00,,,0.00,WeatherCatV1.13B119,2013-01-27 07:58:00,
2013-01-27 02:03:00,37.2,22.1,29.89,ESE,121,0.0,3.0,54,0.00,,,0.00,WeatherCatV1.13B119,2013-01-27 08:03:00,
2013-01-27 02:08:00,37.2,22.1,29.89,ESE,121,1.0,3.0,54,0.00,,,0.00,WeatherCatV1.13B119,2013-01-27 08:08:00,
2013-01-27 02:13:00,37.2,22.5,29.89,ESE,121,1.0,2.0,55,0.00,,,0.00,WeatherCatV1.13B119,2013-01-27 08:13:00,
2013-01-27 02:18:00,37.2,23.0,29.89,ESE,121,0.0,2.0,56,0.00,,,0.00,WeatherCatV1.13B119,2013-01-27 08:18:00,
2013-01-27 02:23:00,37.3,23.5,29.89,ESE,121,0.0,3.0,57,0.00,,,0.00,WeatherCatV1.13B119,2013-01-27 08:23:00,
2013-01-27 02:28:00,37.3,23.9,29.89,ESE,121,1.0,2.0,58,0.00,,,0.00,WeatherCatV1.13B119,2013-01-27 08:28:00,
2013-01-27 02:33:00,37.2,24.6,29.89,ESE,122,2.0,5.0,60,0.00,,,0.00,WeatherCatV1.13B119,2013-01-27 08:33:00,
2013-01-27 02:38:00,37.2,25.4,29.89,SE,128,2.0,5.0,62,0.00,,,0.00,WeatherCatV1.13B119,2013-01-27 08:38:00,
2013-01-27 02:43:00,37.3,26.6,29.89,SE,145,5.0,13.0,65,0.00,,,0.00,WeatherCatV1.13B119,2013-01-27 08:43:00,
2013-01-27 02:48:00,37.6,27.6,29.89,SE,139,4.0,13.0,67,0.00,,,0.00,WeatherCatV1.13B119,2013-01-27 08:48:00,
2013-01-27 02:53:00,37.6,28.4,29.89,SSE,165,4.0,7.0,69,0.00,,,0.00,WeatherCatV1.13B119,2013-01-27 08:53:00,
2013-01-27 02:58:00,37.8,29.3,29.89,SSE,153,4.0,11.0,71,0.00,,,0.00,WeatherCatV1.13B119,2013-01-27 08:58:00,
2013-01-27 03:03:00,37.6,29.7,29.88,SSE,165,3.0,7.0,73,0.00,,,0.00,WeatherCatV1.13B119,2013-01-27 09:03:00,
2013-01-27 03:08:00,37.6,30.4,29.88,SE,140,3.0,5.0,75,0.00,,,0.00,WeatherCatV1.13B119,2013-01-27 09:08:00,
2013-01-27 03:13:00,37.5,30.6,29.88,South,176,5.0,15.0,76,0.00,,,0.00,WeatherCatV1.13B119,2013-01-27 09:13:00,
2013-01-27 03:18:00,37.3,30.8,29.88,ESE,123,0.0,6.0,77,0.00,,,0.00,WeatherCatV1.13B119,2013-01-27 09:18:00,
2013-01-27 03:23:00,37.0,30.8,29.88,South,178,6.0,10.0,78,0.00,,,0.00,WeatherCatV1.13B119,2013-01-27 09:23:00,
2013-01-27 03:28:00,36.9,31.3,29.88,South,169,3.0,7.0,80,0.00,,,0.00,WeatherCatV1.13B119,2013-01-27 09:28:00,
2013-01-27 03:33:00,36.6,31.3,29.87,SSE,167,0.0,4.0,81,0.00,,,0.01,WeatherCatV1.13B119,2013-01-27 09:33:00,
2013-01-27 03:38:00,36.3,31.3,29.87,SE,138,3.0,6.0,82,0.00,,,0.01,WeatherCatV1.13B119,2013-01-27 09:38:00,
2013-01-27 03:43:00,36.2,31.8,29.87,SSE,155,2.0,7.0,84,0.05,,,0.01,WeatherCatV1.13B119,2013-01-27 09:43:00,
2013-01-27 03:48:00,36.0,31.9,29.86,SE,141,2.0,4.0,85,0.12,,,0.02,WeatherCatV1.13B119,2013-01-27 09:48:00,
2013-01-27 03:53:00,36.0,32.5,29.86,SE,132,2.0,4.0,87,0.12,,,0.02,WeatherCatV1.13B119,2013-01-27 09:53:00,
2013-01-27 03:58:00,35.9,32.7,29.86,SE,128,1.0,5.0,88,0.08,,,0.03,WeatherCatV1.13B119,2013-01-27 09:58:00,
2013-01-27 04:03:00,35.8,32.9,29.85,SE,128,2.0,3.0,89,0.09,,,0.04,WeatherCatV1.13B119,2013-01-27 10:03:00,
2013-01-27 04:08:00,35.3,32.4,29.85,SE,128,2.0,4.0,89,0.09,,,0.04,WeatherCatV1.13B119,2013-01-27 10:08:00,
2013-01-27 04:13:00,34.9,32.0,29.85,ESE,103,4.0,6.0,89,0.08,,,0.05,WeatherCatV1.13B119,2013-01-27 10:13:00,
2013-01-27 04:18:00,34.4,31.8,29.84,ESE,120,2.0,5.0,90,0.07,,,0.05,WeatherCatV1.13B119,2013-01-27 10:18:00,
2013-01-27 04:23:00,34.1,31.8,29.84,SE,134,5.0,5.0,91,0.06,,,0.06,WeatherCatV1.13B119,2013-01-27 10:23:00,
2013-01-27 04:28:00,34.0,31.7,29.84,SE,139,3.0,4.0,91,0.11,,,0.07,WeatherCatV1.13B119,2013-01-27 10:28:00,
2013-01-27 04:33:00,34.0,31.9,29.84,SE,124,2.0,4.0,92,0.13,,,0.08,WeatherCatV1.13B119,2013-01-27 10:33:00,
2013-01-27 04:38:00,34.0,31.9,29.84,SE,128,2.0,4.0,92,0.08,,,0.08,WeatherCatV1.13B119,2013-01-27 10:38:00,
2013-01-27 04:43:00,34.1,32.0,29.84,SE,130,0.0,2.0,92,0.08,,,0.09,WeatherCatV1.13B119,2013-01-27 10:43:00,
2013-01-27 04:48:00,34.1,32.3,29.84,SE,131,0.0,5.0,93,0.06,,,0.09,WeatherCatV1.13B119,2013-01-27 10:48:00,
2013-01-27 04:53:00,34.3,32.5,29.84,SSE,153,2.0,5.0,93,0.04,,,0.09,WeatherCatV1.13B119,2013-01-27 10:53:00,
2013-01-27 04:58:00,34.4,32.6,29.84,SE,139,3.0,6.0,93,0.00,,,0.09,WeatherCatV1.13B119,2013-01-27 10:58:00,
2013-01-27 05:03:00,34.6,33.1,29.83,SE,138,3.0,4.0,94,0.00,,,0.10,WeatherCatV1.13B119,2013-01-27 11:03:00,
2013-01-27 05:08:00,34.7,33.2,29.83,SE,129,2.0,5.0,94,0.00,,,0.10,WeatherCatV1.13B119,2013-01-27 11:08:00,
2013-01-27 05:13:00,34.7,33.2,29.83,SE,137,3.0,6.0,94,0.00,,,0.10,WeatherCatV1.13B119,2013-01-27 11:13:00,
2013-01-27 05:18:00,34.7,33.2,29.82,SE,134,4.0,6.0,94,0.00,,,0.10,WeatherCatV1.13B119,2013-01-27 11:18:00,
2013-01-27 05:23:00,34.9,33.4,29.82,ESE,116,4.0,6.0,94,0.00,,,0.10,WeatherCatV1.13B119,2013-01-27 11:23:00,
2013-01-27 05:28:00,34.9,33.4,29.82,ESE,119,4.0,4.0,94,0.00,,,0.10,WeatherCatV1.13B119,2013-01-27 11:28:00,
2013-01-27 05:33:00,34.7,33.4,29.80,ESE,119,4.0,4.0,95,0.00,,,0.10,WeatherCatV1.13B119,2013-01-27 11:33:00,
2013-01-27 05:38:00,34.7,33.4,29.80,SE,128,4.0,6.0,95,0.00,,,0.10,WeatherCatV1.13B119,2013-01-27 11:38:00,
2013-01-27 05:43:00,34.7,33.4,29.80,SE,130,1.0,4.0,95,0.00,,,0.10,WeatherCatV1.13B119,2013-01-27 11:43:00,
2013-01-27 05:48:00,34.7,33.4,29.80,SE,128,3.0,5.0,95,0.00,,,0.11,WeatherCatV1.13B119,2013-01-27 11:48:00,
2013-01-27 05:53:00,34.7,33.4,29.80,SE,128,2.0,4.0,95,0.00,,,0.11,WeatherCatV1.13B119,2013-01-27 11:53:00,
2013-01-27 05:58:00,34.7,33.4,29.80,SE,130,3.0,5.0,95,0.00,,,0.11,WeatherCatV1.13B119,2013-01-27 11:58:00,
2013-01-27 06:03:00,34.7,33.4,29.79,SE,136,5.0,5.0,95,0.00,,,0.11,WeatherCatV1.13B119,2013-01-27 12:03:00,
2013-01-27 06:08:00,34.9,33.6,29.79,SE,138,5.0,5.0,95,0.00,,,0.11,WeatherCatV1.13B119,2013-01-27 12:08:00,
2013-01-27 06:13:00,34.9,33.6,29.79,SE,138,4.0,4.0,95,0.00,,,0.11,WeatherCatV1.13B119,2013-01-27 12:13:00,
2013-01-27 06:18:00,34.9,33.6,29.80,SE,145,2.0,3.0,95,0.00,,,0.11,WeatherCatV1.13B119,2013-01-27 12:18:00,
2013-01-27 06:23:00,34.9,33.9,29.80,South,172,2.0,4.0,96,0.00,,,0.11,WeatherCatV1.13B119,2013-01-27 12:23:00,
2013-01-27 06:28:00,34.9,33.9,29.80,SE,131,0.0,4.0,96,0.00,,,0.11,WeatherCatV1.13B119,2013-01-27 12:28:00,
2013-01-27 06:33:00,35.0,34.0,29.79,SE,134,0.0,4.0,96,0.00,,,0.11,WeatherCatV1.13B119,2013-01-27 12:33:00,
2013-01-27 06:38:00,35.0,34.0,29.79,SE,132,1.0,5.0,96,0.00,,,0.11,WeatherCatV1.13B119,2013-01-27 12:38:00,
2013-01-27 06:43:00,35.0,34.0,29.79,SE,128,1.0,3.0,96,0.00,,,0.11,WeatherCatV1.13B119,2013-01-27 12:43:00,
2013-01-27 06:48:00,35.0,34.0,29.79,South,183,2.0,6.0,96,0.00,,,0.11,WeatherCatV1.13B119,2013-01-27 12:48:00,
2013-01-27 06:53:00,35.0,34.0,29.79,SE,140,0.0,5.0,96,0.00,,,0.11,WeatherCatV1.13B119,2013-01-27 12:53:00,
2013-01-27 06:58:00,35.0,34.0,29.79,SSE,157,1.0,4.0,96,0.00,,,0.11,WeatherCatV1.13B119,2013-01-27 12:58:00,
2013-01-27 07:03:00,35.0,34.0,29.78,SE,144,2.0,4.0,96,0.00,,,0.11,WeatherCatV1.13B119,2013-01-27 13:03:00,
2013-01-27 07:08:00,35.0,34.0,29.78,SE,140,3.0,5.0,96,0.00,,,0.11,WeatherCatV1.13B119,2013-01-27 13:08:00,
2013-01-27 07:13:00,35.0,34.0,29.78,SE,145,2.0,4.0,96,0.00,,,0.11,WeatherCatV1.13B119,2013-01-27 13:13:00,
2013-01-27 07:18:00,35.0,34.0,29.77,SE,138,8.0,8.0,96,0.00,,,0.11,WeatherCatV1.13B119,2013-01-27 13:18:00,
2013-01-27 07:23:00,35.0,34.0,29.77,SE,138,1.0,4.0,96,0.00,,,0.11,WeatherCatV1.13B119,2013-01-27 13:23:00,
2013-01-27 07:28:00,35.2,34.2,29.77,SE,138,3.0,4.0,96,0.00,,,0.11,WeatherCatV1.13B119,2013-01-27 13:28:00,
2013-01-27 07:33:00,35.2,34.2,29.78,SSE,147,2.0,3.0,96,0.00,,,0.11,WeatherCatV1.13B119,2013-01-27 13:33:00,
2013-01-27 07:38:00,35.2,34.2,29.78,SSE,147,3.0,5.0,96,0.00,,,0.11,WeatherCatV1.13B119,2013-01-27 13:38:00,
2013-01-27 07:43:00,35.2,34.2,29.78,SSE,147,2.0,3.0,96,0.00,,,0.11,WeatherCatV1.13B119,2013-01-27 13:43:00,
2013-01-27 07:48:00,35.2,34.2,29.78,SE,146,1.0,4.0,96,0.00,,,0.11,WeatherCatV1.13B119,2013-01-27 13:48:00,
2013-01-27 07:53:00,35.2,34.2,29.78,ESE,119,4.0,4.0,96,0.00,,,0.11,WeatherCatV1.13B119,2013-01-27 13:53:00,
2013-01-27 07:58:00,35.3,34.3,29.78,ESE,122,3.0,3.0,96,0.00,,,0.11,WeatherCatV1.13B119,2013-01-27 13:58:00,
2013-01-27 08:03:00,35.3,34.3,29.77,SE,124,3.0,3.0,96,0.00,,,0.11,WeatherCatV1.13B119,2013-01-27 14:03:00,
2013-01-27 08:08:00,35.5,34.5,29.77,SE,132,3.0,6.0,96,0.00,,,0.11,WeatherCatV1.13B119,2013-01-27 14:08:00,
2013-01-27 08:13:00,35.5,34.5,29.77,SE,132,0.0,3.0,96,0.00,,,0.12,WeatherCatV1.13B119,2013-01-27 14:13:00,
2013-01-27 08:18:00,35.6,34.6,29.77,SSE,168,3.0,4.0,96,0.00,,,0.12,WeatherCatV1.13B119,2013-01-27 14:18:00,
2013-01-27 08:23:00,35.8,34.8,29.77,SSE,160,0.0,0.0,96,0.00,,,0.12,WeatherCatV1.13B119,2013-01-27 14:23:00,
2013-01-27 08:28:00,35.8,34.8,29.77,SE,143,1.0,7.0,96,0.00,,,0.12,WeatherCatV1.13B119,2013-01-27 14:28:00,
2013-01-27 08:33:00,35.8,34.8,29.76,SSE,149,3.0,4.0,96,0.00,,,0.12,WeatherCatV1.13B119,2013-01-27 14:33:00,
2013-01-27 08:38:00,35.9,34.9,29.76,SE,138,5.0,6.0,96,0.00,,,0.12,WeatherCatV1.13B119,2013-01-27 14:38:00,
2013-01-27 08:43:00,35.9,34.9,29.76,SE,146,2.0,3.0,96,0.00,,,0.12,WeatherCatV1.13B119,2013-01-27 14:43:00,
2013-01-27 08:48:00,36.0,35.0,29.77,SE,135,2.0,5.0,96,0.00,,,0.12,WeatherCatV1.13B119,2013-01-27 14:48:00,
2013-01-27 08:53:00,36.0,35.0,29.77,SE,134,1.0,3.0,96,0.00,,,0.12,WeatherCatV1.13B119,2013-01-27 14:53:00,
2013-01-27 08:58:00,36.0,35.0,29.77,SE,134,0.0,3.0,96,0.00,,,0.12,WeatherCatV1.13B119,2013-01-27 14:58:00,
2013-01-27 09:03:00,36.2,35.2,29.76,SE,135,0.0,3.0,96,0.00,,,0.12,WeatherCatV1.13B119,2013-01-27 15:03:00,
2013-01-27 09:08:00,36.2,35.2,29.76,SE,135,4.0,7.0,96,0.00,,,0.12,WeatherCatV1.13B119,2013-01-27 15:08:00,
2013-01-27 09:13:00,36.3,35.5,29.76,SSE,149,4.0,6.0,97,0.00,,,0.12,WeatherCatV1.13B119,2013-01-27 15:13:00,
2013-01-27 09:18:00,36.5,35.7,29.75,SE,136,4.0,6.0,97,0.00,,,0.12,WeatherCatV1.13B119,2013-01-27 15:18:00,
2013-01-27 09:23:00,36.6,35.8,29.75,ESE,123,4.0,7.0,97,0.00,,,0.12,WeatherCatV1.13B119,2013-01-27 15:23:00,
2013-01-27 09:28:00,36.6,35.8,29.75,ESE,123,3.0,10.0,97,0.00,,,0.12,WeatherCatV1.13B119,2013-01-27 15:28:00,
2013-01-27 09:33:00,36.8,36.0,29.73,SE,132,5.0,5.0,97,0.00,,,0.12,WeatherCatV1.13B119,2013-01-27 15:33:00,
2013-01-27 09:38:00,36.8,36.0,29.73,SE,146,3.0,6.0,97,0.00,,,0.12,WeatherCatV1.13B119,2013-01-27 15:38:00,
2013-01-27 09:43:00,36.9,36.1,29.73,SE,138,2.0,4.0,97,0.00,,,0.12,WeatherCatV1.13B119,2013-01-27 15:43:00,
2013-01-27 09:48:00,36.9,36.1,29.74,SE,135,2.0,3.0,97,0.00,,,0.12,WeatherCatV1.13B119,2013-01-27 15:48:00,
2013-01-27 09:53:00,37.0,36.2,29.74,ESE,113,2.0,2.0,97,0.00,,,0.12,WeatherCatV1.13B119,2013-01-27 15:53:00,
2013-01-27 09:58:00,37.0,36.2,29.74,SE,138,3.0,6.0,97,0.00,,,0.12,WeatherCatV1.13B119,2013-01-27 15:58:00,
2013-01-27 10:03:00,37.2,36.4,29.73,SE,140,1.0,5.0,97,0.00,,,0.12,WeatherCatV1.13B119,2013-01-27 16:03:00,
2013-01-27 10:08:00,37.3,36.5,29.73,SSE,150,6.0,6.0,97,0.00,,,0.12,WeatherCatV1.13B119,2013-01-27 16:08:00,
2013-01-27 10:13:00,37.5,36.7,29.73,SE,131,5.0,5.0,97,0.00,,,0.12,WeatherCatV1.13B119,2013-01-27 16:13:00,
2013-01-27 10:18:00,37.6,36.8,29.72,SE,132,4.0,6.0,97,0.00,,,0.12,WeatherCatV1.13B119,2013-01-27 16:18:00,
2013-01-27 10:23:00,37.6,36.8,29.72,South,169,3.0,4.0,97,0.00,,,0.12,WeatherCatV1.13B119,2013-01-27 16:23:00,
2013-01-27 10:28:00,37.6,36.8,29.72,SE,133,0.0,5.0,97,0.00,,,0.12,WeatherCatV1.13B119,2013-01-27 16:28:00,
2013-01-27 10:33:00,37.8,37.0,29.72,SE,133,1.0,1.0,97,0.00,,,0.12,WeatherCatV1.13B119,2013-01-27 16:33:00,
2013-01-27 10:38:00,37.8,37.0,29.72,SE,124,3.0,9.0,97,0.00,,,0.12,WeatherCatV1.13B119,2013-01-27 16:38:00,
2013-01-27 10:43:00,38.0,37.2,29.72,SSE,162,9.0,9.0,97,0.00,,,0.12,WeatherCatV1.13B119,2013-01-27 16:43:00,
2013-01-27 10:48:00,38.2,37.4,29.72,South,172,4.0,6.0,97,0.00,,,0.12,WeatherCatV1.13B119,2013-01-27 16:48:00,
2013-01-27 10:53:00,38.3,37.5,29.72,SSE,164,6.0,10.0,97,0.00,,,0.12,WeatherCatV1.13B119,2013-01-27 16:53:00,
2013-01-27 10:58:00,38.6,37.8,29.72,SSE,161,4.0,7.0,97,0.00,,,0.12,WeatherCatV1.13B119,2013-01-27 16:58:00,
2013-01-27 11:03:00,38.9,38.1,29.70,South,171,5.0,9.0,97,0.00,,,0.12,WeatherCatV1.13B119,2013-01-27 17:03:00,
2013-01-27 11:08:00,39.1,38.3,29.70,SE,133,4.0,7.0,97,0.00,,,0.12,WeatherCatV1.13B119,2013-01-27 17:08:00,
2013-01-27 11:13:00,39.2,38.4,29.70,SE,137,5.0,9.0,97,0.00,,,0.12,WeatherCatV1.13B119,2013-01-27 17:13:00,
2013-01-27 11:18:00,39.2,38.4,29.70,SSW,198,0.0,6.0,97,0.00,,,0.12,WeatherCatV1.13B119,2013-01-27 17:18:00,
2013-01-27 11:23:00,39.3,38.5,29.70,South,188,11.0,14.0,97,0.00,,,0.12,WeatherCatV1.13B119,2013-01-27 17:23:00,
2013-01-27 11:28:00,39.3,38.5,29.70,SE,127,9.0,10.0,97,0.00,,,0.12,WeatherCatV1.13B119,2013-01-27 17:28:00,
2013-01-27 11:33:00,39.5,38.7,29.70,SE,143,2.0,9.0,97,0.00,,,0.12,WeatherCatV1.13B119,2013-01-27 17:33:00,
2013-01-27 11:38:00,39.5,38.7,29.70,SSE,148,6.0,11.0,97,0.00,,,0.12,WeatherCatV1.13B119,2013-01-27 17:38:00,
2013-01-27 11:43:00,39.5,38.7,29.70,SE,138,5.0,8.0,97,0.00,,,0.12,WeatherCatV1.13B119,2013-01-27 17:43:00,
2013-01-27 11:48:00,39.5,38.7,29.69,South,169,3.0,10.0,97,0.00,,,0.12,WeatherCatV1.13B119,2013-01-27 17:48:00,
2013-01-27 11:53:00,39.5,38.7,29.69,SSE,159,4.0,11.0,97,0.00,,,0.12,WeatherCatV1.13B119,2013-01-27 17:53:00,
2013-01-27 11:58:00,39.5,38.7,29.69,South,189,10.0,10.0,97,0.00,,,0.12,WeatherCatV1.13B119,2013-01-27 17:58:00,
2013-01-27 12:03:00,39.6,38.8,29.68,SSE,166,0.0,4.0,97,0.00,,,0.12,WeatherCatV1.13B119,2013-01-27 18:03:00,
2013-01-27 12:08:00,39.6,38.8,29.68,SSE,161,2.0,5.0,97,0.00,,,0.12,WeatherCatV1.13B119,2013-01-27 18:08:00,
2013-01-27 12:13:00,39.6,38.8,29.68,SSE,164,2.0,3.0,97,0.00,,,0.12,WeatherCatV1.13B119,2013-01-27 18:13:00,
2013-01-27 12:18:00,39.6,38.8,29.67,South,178,6.0,6.0,97,0.00,,,0.12,WeatherCatV1.13B119,2013-01-27 18:18:00,
2013-01-27 12:23:00,39.8,39.0,29.67,SSE,153,1.0,5.0,97,0.00,,,0.12,WeatherCatV1.13B119,2013-01-27 18:23:00,
2013-01-27 12:28:00,39.8,39.0,29.67,SE,139,0.0,5.0,97,0.00,,,0.12,WeatherCatV1.13B119,2013-01-27 18:28:00,
2013-01-27 12:33:00,39.9,39.1,29.66,South,184,2.0,7.0,97,0.00,,,0.12,WeatherCatV1.13B119,2013-01-27 18:33:00,
2013-01-27 12:38:00,39.9,39.1,29.66,SSE,147,0.0,2.0,97,0.00,,,0.12,WeatherCatV1.13B119,2013-01-27 18:38:00,
2013-01-27 12:43:00,40.1,39.3,29.66,SE,145,0.0,4.0,97,0.00,,,0.12,WeatherCatV1.13B119,2013-01-27 18:43:00,
2013-01-27 12:48:00,40.1,39.3,29.65,SSE,152,1.0,7.0,97,0.00,,,0.12,WeatherCatV1.13B119,2013-01-27 18:48:00,
2013-01-27 12:51:00,40.2,39.4,29.65,South,169,5.0,6.0,97,0.00,,,0.12,WeatherCatV1.13B119,2013-01-27 18:51:00,
2013-01-27 12:56:00,40.2,39.4,29.65,SE,130,1.0,8.0,97,0.00,,,0.12,WeatherCatV1.13B119,2013-01-27 18:56:00,
2013-01-27 13:01:00,40.2,39.4,29.64,SSE,159,2.0,7.0,97,0.00,,,0.12,WeatherCatV1.13B119,2013-01-27 19:01:00,
2013-01-27 13:06:00,40.3,39.5,29.64,SE,136,2.0,5.0,97,0.00,,,0.12,WeatherCatV1.13B119,2013-01-27 19:06:00,
2013-01-27 13:11:00,40.3,39.5,29.64,SSE,155,2.0,5.0,97,0.00,,,0.12,WeatherCatV1.13B119,2013-01-27 19:11:00,
2013-01-27 13:16:00,40.3,39.5,29.63,SSE,153,3.0,3.0,97,0.00,,,0.12,WeatherCatV1.13B119,2013-01-27 19:16:00,
2013-01-27 13:21:00,40.3,39.5,29.63,SSE,161,2.0,4.0,97,0.00,,,0.12,WeatherCatV1.13B119,2013-01-27 19:21:00,
2013-01-27 13:26:00,40.5,40.0,29.63,SSE,162,0.0,7.0,98,0.00,,,0.12,WeatherCatV1.13B119,2013-01-27 19:26:00,
2013-01-27 13:31:00,40.5,40.0,29.62,South,178,0.0,6.0,98,0.00,,,0.12,WeatherCatV1.13B119,2013-01-27 19:31:00,
2013-01-27 13:36:00,40.6,40.1,29.62,South,171,0.0,4.0,98,0.00,,,0.12,WeatherCatV1.13B119,2013-01-27 19:36:00,
2013-01-27 13:41:00,40.6,40.1,29.62,South,169,0.0,0.0,98,0.00,,,0.12,WeatherCatV1.13B119,2013-01-27 19:41:00,
2013-01-27 13:46:00,40.8,40.3,29.62,SSE,158,0.0,4.0,98,0.00,,,0.12,WeatherCatV1.13B119,2013-01-27 19:46:00,
2013-01-27 13:51:00,40.9,40.4,29.62,SSE,148,0.0,5.0,98,0.00,,,0.12,WeatherCatV1.13B119,2013-01-27 19:51:00,
2013-01-27 13:56:00,41.1,40.6,29.62,SE,142,0.0,4.0,98,0.00,,,0.12,WeatherCatV1.13B119,2013-01-27 19:56:00,
2013-01-27 14:01:00,41.1,40.6,29.61,SSE,163,3.0,6.0,98,0.00,,,0.12,WeatherCatV1.13B119,2013-01-27 20:01:00,
2013-01-27 14:06:00,41.2,40.7,29.61,SSE,150,1.0,3.0,98,0.00,,,0.12,WeatherCatV1.13B119,2013-01-27 20:06:00,
2013-01-27 14:11:00,41.2,40.7,29.61,SSE,150,0.0,2.0,98,0.00,,,0.12,WeatherCatV1.13B119,2013-01-27 20:11:00,
2013-01-27 14:16:00,41.2,40.7,29.60,SSE,150,0.0,0.0,98,0.00,,,0.12,WeatherCatV1.13B119,2013-01-27 20:16:00,
2013-01-27 14:21:00,41.2,40.7,29.60,SSE,151,0.0,0.0,98,0.00,,,0.12,WeatherCatV1.13B119,2013-01-27 20:21:00,
2013-01-27 14:26:00,41.3,40.8,29.60,SSE,151,0.0,3.0,98,0.00,,,0.12,WeatherCatV1.13B119,2013-01-27 20:26:00,
2013-01-27 14:31:00,41.3,40.8,29.60,SSE,151,0.0,1.0,98,0.00,,,0.12,WeatherCatV1.13B119,2013-01-27 20:31:00,
2013-01-27 14:36:00,41.3,40.8,29.60,SSE,151,1.0,3.0,98,0.00,,,0.12,WeatherCatV1.13B119,2013-01-27 20:36:00,
2013-01-27 14:41:00,41.3,40.8,29.60,SSE,150,0.0,2.0,98,0.00,,,0.12,WeatherCatV1.13B119,2013-01-27 20:41:00,
2013-01-27 14:46:00,41.5,41.0,29.60,SSE,150,2.0,3.0,98,0.00,,,0.12,WeatherCatV1.13B119,2013-01-27 20:46:00,
2013-01-27 14:51:00,41.6,41.1,29.60,SSE,150,0.0,1.0,98,0.00,,,0.12,WeatherCatV1.13B119,2013-01-27 20:51:00,
2013-01-27 14:56:00,41.6,41.1,29.60,SSE,150,1.0,3.0,98,0.00,,,0.12,WeatherCatV1.13B119,2013-01-27 20:56:00,
2013-01-27 15:01:00,41.8,41.3,29.60,SSE,150,0.0,1.0,98,0.00,,,0.12,WeatherCatV1.13B119,2013-01-27 21:01:00,
2013-01-27 15:06:00,41.9,41.4,29.60,SSE,150,0.0,0.0,98,0.00,,,0.12,WeatherCatV1.13B119,2013-01-27 21:06:00,
2013-01-27 15:11:00,41.9,41.4,29.60,SSE,150,0.0,1.0,98,0.00,,,0.12,WeatherCatV1.13B119,2013-01-27 21:11:00,
2013-01-27 15:16:00,42.1,41.6,29.60,SSE,150,0.0,3.0,98,0.00,,,0.12,WeatherCatV1.13B119,2013-01-27 21:16:00,
2013-01-27 15:21:00,42.1,41.6,29.60,SSE,150,0.0,1.0,98,0.00,,,0.12,WeatherCatV1.13B119,2013-01-27 21:21:00,
2013-01-27 15:26:00,42.1,41.6,29.60,SSE,150,0.0,2.0,98,0.00,,,0.12,WeatherCatV1.13B119,2013-01-27 21:26:00,
2013-01-27 15:31:00,42.1,41.6,29.60,SSE,150,0.0,1.0,98,0.00,,,0.12,WeatherCatV1.13B119,2013-01-27 21:31:00,
2013-01-27 15:36:00,42.1,41.6,29.60,SSE,150,0.0,0.0,98,0.00,,,0.12,WeatherCatV1.13B119,2013-01-27 21:36:00,
2013-01-27 15:41:00,41.9,41.4,29.60,SSE,150,0.0,1.0,98,0.00,,,0.12,WeatherCatV1.13B119,2013-01-27 21:41:00,
2013-01-27 15:46:00,41.9,41.4,29.60,SSE,150,0.0,1.0,98,0.00,,,0.12,WeatherCatV1.13B119,2013-01-27 21:46:00,
2013-01-27 15:51:00,41.8,41.3,29.60,SSE,150,0.0,2.0,98,0.00,,,0.12,WeatherCatV1.13B119,2013-01-27 21:51:00,
2013-01-27 15:56:00,41.6,41.1,29.60,SSE,150,1.0,2.0,98,0.00,,,0.12,WeatherCatV1.13B119,2013-01-27 21:56:00,
2013-01-27 16:01:00,41.6,41.1,29.59,SSE,150,0.0,1.0,98,0.00,,,0.12,WeatherCatV1.13B119,2013-01-27 22:01:00,
2013-01-27 16:06:00,41.5,41.0,29.59,SSE,150,1.0,1.0,98,0.00,,,0.12,WeatherCatV1.13B119,2013-01-27 22:06:00,
2013-01-27 16:11:00,41.5,41.0,29.59,SSE,150,0.0,0.0,98,0.00,,,0.12,WeatherCatV1.13B119,2013-01-27 22:11:00,
2013-01-27 16:16:00,41.5,41.0,29.60,SSE,150,0.0,0.0,98,0.00,,,0.12,WeatherCatV1.13B119,2013-01-27 22:16:00,
2013-01-27 16:21:00,41.3,40.8,29.60,SSE,150,0.0,1.0,98,0.00,,,0.12,WeatherCatV1.13B119,2013-01-27 22:21:00,
2013-01-27 16:26:00,41.3,40.8,29.60,SSE,150,0.0,0.0,98,0.00,,,0.12,WeatherCatV1.13B119,2013-01-27 22:26:00,
2013-01-27 16:31:00,41.3,40.8,29.60,SSE,150,0.0,0.0,98,0.00,,,0.12,WeatherCatV1.13B119,2013-01-27 22:31:00,
2013-01-27 16:36:00,41.5,41.0,29.60,SSE,150,0.0,0.0,98,0.00,,,0.12,WeatherCatV1.13B119,2013-01-27 22:36:00,
2013-01-27 16:41:00,41.5,41.2,29.60,SSE,150,0.0,0.0,99,0.00,,,0.12,WeatherCatV1.13B119,2013-01-27 22:41:00,
2013-01-27 16:46:00,41.5,41.0,29.60,SSE,150,0.0,0.0,98,0.00,,,0.12,WeatherCatV1.13B119,2013-01-27 22:46:00,
2013-01-27 16:51:00,41.5,41.2,29.60,SSE,150,0.0,0.0,99,0.00,,,0.12,WeatherCatV1.13B119,2013-01-27 22:51:00,
2013-01-27 16:56:00,41.5,41.0,29.60,SSE,150,0.0,0.0,98,0.00,,,0.12,WeatherCatV1.13B119,2013-01-27 22:56:00,
2013-01-27 17:01:00,41.5,41.0,29.60,SSE,150,0.0,0.0,98,0.00,,,0.12,WeatherCatV1.13B119,2013-01-27 23:01:00,
2013-01-27 17:06:00,41.5,41.0,29.60,SSE,150,0.0,0.0,98,0.00,,,0.12,WeatherCatV1.13B119,2013-01-27 23:06:00,
2013-01-27 17:11:00,41.3,40.8,29.60,SSE,150,0.0,0.0,98,0.00,,,0.12,WeatherCatV1.13B119,2013-01-27 23:11:00,
2013-01-27 17:16:00,41.3,40.8,29.60,SSE,150,0.0,0.0,98,0.00,,,0.12,WeatherCatV1.13B119,2013-01-27 23:16:00,
2013-01-27 17:21:00,41.3,40.8,29.60,SSE,150,0.0,1.0,98,0.00,,,0.12,WeatherCatV1.13B119,2013-01-27 23:21:00,
2013-01-27 17:26:00,41.2,40.7,29.60,SSE,150,0.0,1.0,98,0.00,,,0.12,WeatherCatV1.13B119,2013-01-27 23:26:00,
2013-01-27 17:31:00,41.2,40.7,29.61,SSE,150,0.0,0.0,98,0.00,,,0.12,WeatherCatV1.13B119,2013-01-27 23:31:00,
2013-01-27 17:36:00,41.2,40.7,29.61,SSE,150,0.0,0.0,98,0.00,,,0.13,WeatherCatV1.13B119,2013-01-27 23:36:00,
2013-01-27 17:41:00,41.2,40.7,29.61,SSE,150,0.0,0.0,98,0.00,,,0.13,WeatherCatV1.13B119,2013-01-27 23:41:00,
2013-01-27 17:46:00,41.1,40.6,29.61,SSE,150,0.0,0.0,98,0.00,,,0.13,WeatherCatV1.13B119,2013-01-27 23:46:00,
2013-01-27 17:51:00,41.1,40.6,29.61,SSE,150,0.0,0.0,98,0.00,,,0.13,WeatherCatV1.13B119,2013-01-27 23:51:00,
2013-01-27 17:56:00,41.1,40.6,29.61,SSE,150,0.0,0.0,98,0.00,,,0.13,WeatherCatV1.13B119,2013-01-27 23:56:00,
2013-01-27 18:01:00,41.2,40.9,29.62,SSE,150,0.0,0.0,99,0.00,,,0.13,WeatherCatV1.13B119,2013-01-28 00:01:00,
2013-01-27 18:06:00,41.3,41.0,29.62,SSE,150,0.0,1.0,99,0.00,,,0.13,WeatherCatV1.13B119,2013-01-28 00:06:00,
2013-01-27 18:11:00,41.6,41.3,29.62,SSE,150,0.0,0.0,99,0.00,,,0.13,WeatherCatV1.13B119,2013-01-28 00:11:00,
2013-01-27 18:16:00,41.6,41.3,29.62,SSE,150,0.0,0.0,99,0.00,,,0.13,WeatherCatV1.13B119,2013-01-28 00:16:00,
2013-01-27 18:21:00,41.6,41.3,29.62,SSE,150,0.0,0.0,99,0.00,,,0.13,WeatherCatV1.13B119,2013-01-28 00:21:00,
2013-01-27 18:26:00,41.5,41.2,29.62,SSE,150,1.0,2.0,99,0.00,,,0.13,WeatherCatV1.13B119,2013-01-28 00:26:00,
2013-01-27 18:31:00,41.3,41.0,29.64,SSE,157,0.0,1.0,99,0.00,,,0.13,WeatherCatV1.13B119,2013-01-28 00:31:00,
2013-01-27 18:36:00,41.2,40.9,29.64,SSE,157,0.0,1.0,99,0.00,,,0.13,WeatherCatV1.13B119,2013-01-28 00:36:00,
2013-01-27 18:41:00,41.2,40.9,29.64,SSE,157,0.0,1.0,99,0.00,,,0.13,WeatherCatV1.13B119,2013-01-28 00:41:00,
2013-01-27 18:46:00,41.2,40.9,29.64,SSE,157,0.0,3.0,99,0.00,,,0.13,WeatherCatV1.13B119,2013-01-28 00:46:00,
2013-01-27 18:51:00,41.2,40.9,29.64,SSE,157,0.0,0.0,99,0.00,,,0.13,WeatherCatV1.13B119,2013-01-28 00:51:00,
2013-01-27 18:56:00,41.2,40.9,29.64,SSE,157,0.0,0.0,99,0.00,,,0.13,WeatherCatV1.13B119,2013-01-28 00:56:00,
2013-01-27 19:01:00,41.1,40.8,29.64,SSE,157,0.0,0.0,99,0.00,,,0.13,WeatherCatV1.13B119,2013-01-28 01:01:00,
2013-01-27 19:06:00,41.1,40.8,29.64,SSE,157,0.0,0.0,99,0.00,,,0.13,WeatherCatV1.13B119,2013-01-28 01:06:00,
2013-01-27 19:11:00,40.9,40.6,29.64,SSE,157,0.0,0.0,99,0.00,,,0.13,WeatherCatV1.13B119,2013-01-28 01:11:00,
2013-01-27 19:16:00,40.9,40.6,29.65,SSE,157,0.0,0.0,99,0.00,,,0.13,WeatherCatV1.13B119,2013-01-28 01:16:00,
2013-01-27 19:21:00,40.9,40.6,29.65,SSE,157,0.0,1.0,99,0.00,,,0.13,WeatherCatV1.13B119,2013-01-28 01:21:00,
2013-01-27 19:26:00,40.9,40.6,29.65,SSE,157,0.0,0.0,99,0.00,,,0.13,WeatherCatV1.13B119,2013-01-28 01:26:00,
2013-01-27 19:31:00,40.9,40.6,29.65,SSE,157,0.0,0.0,99,0.00,,,0.13,WeatherCatV1.13B119,2013-01-28 01:31:00,
2013-01-27 19:36:00,40.9,40.6,29.65,SSE,157,0.0,0.0,99,0.00,,,0.13,WeatherCatV1.13B119,2013-01-28 01:36:00,
2013-01-27 19:41:00,40.9,40.6,29.65,SSE,157,0.0,0.0,99,0.00,,,0.13,WeatherCatV1.13B119,2013-01-28 01:41:00,
2013-01-27 19:46:00,40.8,40.5,29.65,SSE,157,0.0,0.0,99,0.00,,,0.13,WeatherCatV1.13B119,2013-01-28 01:46:00,
2013-01-27 19:51:00,40.8,40.5,29.65,SSE,157,0.0,0.0,99,0.00,,,0.13,WeatherCatV1.13B119,2013-01-28 01:51:00,
2013-01-27 19:56:00,40.8,40.5,29.65,SSE,157,0.0,1.0,99,0.00,,,0.13,WeatherCatV1.13B119,2013-01-28 01:56:00,
2013-01-27 20:01:00,40.8,40.5,29.65,SSE,157,0.0,2.0,99,0.00,,,0.13,WeatherCatV1.13B119,2013-01-28 02:01:00,
2013-01-27 20:06:00,40.8,40.5,29.65,SSE,157,0.0,1.0,99,0.00,,,0.13,WeatherCatV1.13B119,2013-01-28 02:06:00,
2013-01-27 20:11:00,40.8,40.5,29.65,SSE,157,0.0,0.0,99,0.00,,,0.13,WeatherCatV1.13B119,2013-01-28 02:11:00,
2013-01-27 20:16:00,40.8,40.5,29.65,SSE,157,0.0,0.0,99,0.00,,,0.13,WeatherCatV1.13B119,2013-01-28 02:16:00,
2013-01-27 20:21:00,40.6,40.3,29.65,SSE,157,0.0,1.0,99,0.00,,,0.13,WeatherCatV1.13B119,2013-01-28 02:21:00,
2013-01-27 20:26:00,40.6,40.3,29.65,SSE,157,0.0,0.0,99,0.00,,,0.13,WeatherCatV1.13B119,2013-01-28 02:26:00,
2013-01-27 20:31:00,40.6,40.3,29.66,SSE,157,0.0,1.0,99,0.00,,,0.13,WeatherCatV1.13B119,2013-01-28 02:31:00,
2013-01-27 20:36:00,40.6,40.3,29.66,SSE,157,0.0,0.0,99,0.00,,,0.13,WeatherCatV1.13B119,2013-01-28 02:36:00,
2013-01-27 20:41:00,40.5,40.2,29.66,SSE,157,0.0,0.0,99,0.00,,,0.13,WeatherCatV1.13B119,2013-01-28 02:41:00,
2013-01-27 20:46:00,40.5,40.2,29.67,SSE,157,0.0,0.0,99,0.00,,,0.13,WeatherCatV1.13B119,2013-01-28 02:46:00,
2013-01-27 20:51:00,40.3,40.0,29.67,SSE,157,1.0,2.0,99,0.00,,,0.13,WeatherCatV1.13B119,2013-01-28 02:51:00,
2013-01-27 20:56:00,40.3,40.0,29.67,SSE,157,0.0,2.0,99,0.00,,,0.13,WeatherCatV1.13B119,2013-01-28 02:56:00,
2013-01-27 21:01:00,40.3,40.0,29.68,SSE,157,0.0,0.0,99,0.00,,,0.13,WeatherCatV1.13B119,2013-01-28 03:01:00,
2013-01-27 21:06:00,40.3,40.0,29.68,SSE,157,0.0,1.0,99,0.00,,,0.13,WeatherCatV1.13B119,2013-01-28 03:06:00,
2013-01-27 21:11:00,40.3,40.0,29.68,SSE,157,0.0,1.0,99,0.00,,,0.13,WeatherCatV1.13B119,2013-01-28 03:11:00,
2013-01-27 21:16:00,40.3,40.0,29.68,SSE,157,0.0,1.0,99,0.00,,,0.13,WeatherCatV1.13B119,2013-01-28 03:16:00,
2013-01-27 21:21:00,40.3,40.0,29.68,SSE,157,0.0,1.0,99,0.00,,,0.13,WeatherCatV1.13B119,2013-01-28 03:21:00,
2013-01-27 21:26:00,40.3,40.0,29.68,SSE,157,0.0,2.0,99,0.00,,,0.13,WeatherCatV1.13B119,2013-01-28 03:26:00,
2013-01-27 21:31:00,40.2,39.9,29.68,South,180,2.0,3.0,99,0.00,,,0.13,WeatherCatV1.13B119,2013-01-28 03:31:00,
2013-01-27 21:36:00,40.2,39.9,29.68,South,180,0.0,1.0,99,0.00,,,0.13,WeatherCatV1.13B119,2013-01-28 03:36:00,
2013-01-27 21:41:00,40.2,39.9,29.68,South,180,0.0,2.0,99,0.00,,,0.13,WeatherCatV1.13B119,2013-01-28 03:41:00,
2013-01-27 21:46:00,40.1,39.8,29.69,WSW,244,0.0,2.0,99,0.00,,,0.13,WeatherCatV1.13B119,2013-01-28 03:46:00,
2013-01-27 21:51:00,40.1,39.8,29.69,WSW,244,1.0,1.0,99,0.00,,,0.13,WeatherCatV1.13B119,2013-01-28 03:51:00,
2013-01-27 21:56:00,39.9,39.6,29.69,WSW,244,0.0,1.0,99,0.00,,,0.13,WeatherCatV1.13B119,2013-01-28 03:56:00,
2013-01-27 22:01:00,39.9,39.6,29.69,WSW,246,0.0,0.0,99,0.00,,,0.13,WeatherCatV1.13B119,2013-01-28 04:01:00,
2013-01-27 22:06:00,39.8,39.5,29.69,WSW,246,0.0,2.0,99,0.00,,,0.13,WeatherCatV1.13B119,2013-01-28 04:06:00,
2013-01-27 22:11:00,39.8,39.5,29.69,WSW,250,0.0,5.0,99,0.00,,,0.13,WeatherCatV1.13B119,2013-01-28 04:11:00,
2013-01-27 22:16:00,39.6,39.3,29.69,West,280,0.0,4.0,99,0.00,,,0.13,WeatherCatV1.13B119,2013-01-28 04:16:00,
2013-01-27 22:21:00,39.5,39.2,29.69,West,280,0.0,2.0,99,0.00,,,0.13,WeatherCatV1.13B119,2013-01-28 04:21:00,
2013-01-27 22:26:00,39.3,39.0,29.69,West,280,0.0,2.0,99,0.00,,,0.13,WeatherCatV1.13B119,2013-01-28 04:26:00,
2013-01-27 22:31:00,39.1,38.8,29.70,West,272,0.0,3.0,99,0.00,,,0.13,WeatherCatV1.13B119,2013-01-28 04:31:00,
2013-01-27 22:36:00,38.8,38.5,29.70,West,271,0.0,3.0,99,0.00,,,0.13,WeatherCatV1.13B119,2013-01-28 04:36:00,
2013-01-27 22:41:00,38.6,38.3,29.70,WSW,249,1.0,2.0,99,0.00,,,0.13,WeatherCatV1.13B119,2013-01-28 04:41:00,
2013-01-27 22:46:00,38.5,38.2,29.70,WSW,249,0.0,1.0,99,0.00,,,0.13,WeatherCatV1.13B119,2013-01-28 04:46:00,
2013-01-27 22:51:00,38.3,38.0,29.70,WSW,250,0.0,1.0,99,0.00,,,0.13,WeatherCatV1.13B119,2013-01-28 04:51:00,
2013-01-27 22:56:00,38.2,37.9,29.70,WSW,257,0.0,5.0,99,0.00,,,0.13,WeatherCatV1.13B119,2013-01-28 04:56:00,
2013-01-27 23:00:00,38.2,37.9,29.71,WSW,257,3.0,4.0,99,0.00,,,0.13,WeatherCatV1.13B119,2013-01-28 05:00:00,
2013-01-27 23:01:00,38.2,37.9,29.71,WSW,257,0.0,4.0,99,0.00,,,0.13,WeatherCatV1.13B119,2013-01-28 05:01:00,
2013-01-27 23:06:00,38.0,37.7,29.71,WSW,257,0.0,3.0,99,0.00,,,0.13,WeatherCatV1.13B119,2013-01-28 05:06:00,
2013-01-27 23:11:00,38.0,37.7,29.71,WSW,257,0.0,0.0,99,0.00,,,0.13,WeatherCatV1.13B119,2013-01-28 05:11:00,
2013-01-27 23:16:00,38.0,37.7,29.71,West,271,0.0,3.0,99,0.00,,,0.13,WeatherCatV1.13B119,2013-01-28 05:16:00,
2013-01-27 23:21:00,37.9,37.6,29.71,West,272,1.0,2.0,99,0.00,,,0.13,WeatherCatV1.13B119,2013-01-28 05:21:00,
2013-01-27 23:26:00,37.8,37.5,29.71,West,272,0.0,2.0,99,0.00,,,0.13,WeatherCatV1.13B119,2013-01-28 05:26:00,
2013-01-27 23:31:00,37.8,37.5,29.72,West,272,0.0,1.0,99,0.00,,,0.13,WeatherCatV1.13B119,2013-01-28 05:31:00,
2013-01-27 23:36:00,37.6,37.3,29.72,West,272,0.0,0.0,99,0.00,,,0.13,WeatherCatV1.13B119,2013-01-28 05:36:00,
2013-01-27 23:41:00,37.6,37.3,29.72,West,272,0.0,0.0,99,0.00,,,0.13,WeatherCatV1.13B119,2013-01-28 05:41:00,
2013-01-27 23:46:00,37.6,37.3,29.72,West,272,0.0,1.0,99,0.00,,,0.13,WeatherCatV1.13B119,2013-01-28 05:46:00,
2013-01-27 23:51:00,37.6,37.3,29.72,West,272,0.0,0.0,99,0.00,,,0.13,WeatherCatV1.13B119,2013-01-28 05:51:00,
2013-01-27 23:56:00,37.5,37.2,29.72,West,272,0.0,0.0,99,0.00,,,0.13,WeatherCatV1.13B119,2013-01-28 05:56:00,